| time (UTC) | temp F | wind direction | speed MPH | gust MPH | rain 1hr in | rain 24hr in | rain mn in | humidity % | barometer mb |
| 20260504194606 | 69 | 252 | 5.0 | 6.0 | 0.00 | 0.00 | 0.00 | 31 | 1008.0 |
| 20260504194102 | 68 | 262 | 6.0 | 6.0 | 0.00 | 0.00 | 0.00 | 32 | 1008.0 |
| 20260504193558 | 68 | 288 | 7.0 | 7.0 | 0.00 | 0.00 | 0.00 | 31 | 1008.0 |
| 20260504193057 | 69 | 258 | 7.0 | 7.0 | 0.00 | 0.00 | 0.00 | 31 | 1008.3 |
| 20260504192555 | 69 | 275 | 6.0 | 6.0 | 0.00 | 0.00 | 0.00 | 30 | 1008.0 |
| 20260504192052 | 69 | 263 | 4.0 | 4.0 | 0.00 | 0.00 | 0.00 | 30 | 1008.0 |
| 20260504191550 | 68 | 270 | 9.0 | 10.0 | 0.00 | 0.00 | 0.00 | 30 | 1008.3 |
| 20260504191046 | 69 | 312 | 5.0 | 6.0 | 0.00 | 0.00 | 0.00 | 30 | 1008.3 |
| 20260504190543 | 69 | 269 | 5.0 | 6.0 | 0.00 | 0.00 | 0.00 | 30 | 1008.3 |
| 20260504190039 | 69 | 283 | 4.0 | 4.0 | 0.00 | 0.00 | 0.00 | 30 | 1008.0 |
| 20260504185536 | 69 | 290 | 9.0 | 10.0 | 0.00 | 0.00 | 0.00 | 29 | 1008.3 |
| 20260504185032 | 69 | 268 | 4.0 | 4.0 | 0.00 | 0.00 | 0.00 | 30 | 1008.3 |
| 20260504184528 | 68 | 294 | 4.0 | 5.0 | 0.00 | 0.00 | 0.00 | 30 | 1008.3 |
| 20260504184023 | 68 | 283 | 3.0 | 3.0 | 0.00 | 0.00 | 0.00 | 31 | 1008.3 |
| 20260504183521 | 68 | 276 | 5.0 | 6.0 | 0.00 | 0.00 | 0.00 | 29 | 1008.8 |
| 20260504183019 | 68 | 252 | 3.0 | 3.0 | 0.00 | 0.00 | 0.00 | 31 | 1008.3 |
| 20260504182515 | 68 | 272 | 5.0 | 6.0 | 0.00 | 0.00 | 0.00 | 30 | 1008.8 |
| 20260504182013 | 68 | 293 | 6.0 | 6.0 | 0.00 | 0.00 | 0.00 | 30 | 1008.8 |
| 20260504181510 | 68 | 258 | 7.0 | 7.0 | 0.00 | 0.00 | 0.00 | 29 | 1008.8 |
| 20260504181008 | 68 | 295 | 6.0 | 6.0 | 0.00 | 0.00 | 0.00 | 29 | 1008.3 |
| 20260504180507 | 68 | 304 | 8.0 | 8.0 | 0.00 | 0.00 | 0.00 | 30 | 1008.8 |
| 20260504180005 | 69 | 276 | 5.0 | 6.0 | 0.00 | 0.00 | 0.00 | 30 | 1008.8 |
| 20260504175502 | 69 | 283 | 6.0 | 6.0 | 0.00 | 0.00 | 0.00 | 30 | 1008.8 |
| 20260504174959 | 68 | 288 | 7.0 | 7.0 | 0.00 | 0.00 | 0.00 | 29 | 1008.8 |
| 20260504174456 | 68 | 285 | 4.0 | 4.0 | 0.00 | 0.00 | 0.00 | 29 | 1008.8 |
| 20260504173954 | 68 | 264 | 5.0 | 5.0 | 0.00 | 0.00 | 0.00 | 28 | 1008.8 |
| 20260504173450 | 68 | 294 | 5.0 | 6.0 | 0.00 | 0.00 | 0.00 | 29 | 1008.8 |
| 20260504172947 | 67 | 277 | 6.0 | 6.0 | 0.00 | 0.00 | 0.00 | 29 | 1008.8 |
| 20260504172443 | 67 | 264 | 4.0 | 4.0 | 0.00 | 0.00 | 0.00 | 30 | 1008.8 |
| 20260504171940 | 67 | 277 | 6.0 | 6.0 | 0.00 | 0.00 | 0.00 | 30 | 1008.8 |
| 20260504171437 | 67 | 261 | 7.0 | 7.0 | 0.00 | 0.00 | 0.00 | 31 | 1009.1 |
| 20260504170934 | 66 | 282 | 4.0 | 4.0 | 0.00 | 0.00 | 0.00 | 30 | 1009.1 |
| 20260504170430 | 66 | 276 | 9.0 | 9.0 | 0.00 | 0.00 | 0.00 | 32 | 1009.1 |
| 20260504160349 | 64 | 270 | 6.0 | 6.0 | 0.00 | 0.00 | 0.00 | 33 | 1009.4 |
| 20260504150814 | 63 | 276 | 7.0 | 8.0 | 0.00 | 0.00 | 0.00 | 34 | 1009.8 |
| 20260504150311 | 62 | 252 | 8.0 | 9.0 | 0.00 | 0.00 | 0.00 | 35 | 1009.8 |
| 20260504141241 | 60 | 296 | 4.0 | 4.0 | 0.00 | 0.00 | 0.00 | 39 | 1010.8 |
| 20260504140737 | 60 | 270 | 5.0 | 5.0 | 0.00 | 0.00 | 0.00 | 41 | 1010.8 |
| 20260504140233 | 59 | 270 | 4.0 | 5.0 | 0.00 | 0.00 | 0.00 | 41 | 1010.8 |
| 20260504130702 | 55 | 294 | 4.0 | 4.0 | 0.00 | 0.00 | 0.00 | 48 | 1011.5 |
| 20260504130157 | 54 | 276 | 2.0 | 2.0 | 0.00 | 0.00 | 0.00 | 48 | 1011.5 |
| 20260504120122 | 49 | 42 | 0.0 | 0.0 | 0.00 | 0.00 | 0.00 | 59 | 1011.5 |
| 20260504110549 | 43 | 252 | 0.0 | 0.0 | 0.00 | 0.00 | 0.00 | 70 | 1011.5 |
| 20260504100511 | 42 | 258 | 0.0 | 0.0 | 0.00 | 0.00 | 0.00 | 67 | 1011.5 |
| 20260504081904 | 42 | 270 | 0.0 | 0.0 | 0.00 | 0.00 | 0.00 | 66 | 1011.5 |
| 20260504081401 | 42 | 270 | 0.0 | 0.0 | 0.00 | 0.00 | 0.00 | 69 | 1011.5 |
| 20260504080856 | 43 | 270 | 0.0 | 0.0 | 0.00 | 0.00 | 0.00 | 68 | 1011.5 |
| 20260504080354 | 43 | 270 | 0.0 | 0.0 | 0.00 | 0.00 | 0.00 | 66 | 1011.8 |
| 20260504070315 | 42 | 270 | 0.0 | 0.0 | 0.00 | 0.00 | 0.00 | 67 | 1011.5 |
| 20260504060236 | 45 | 270 | 2.0 | 2.0 | 0.00 | 0.00 | 0.00 | 49 | 1011.5 |
| 20260504050703 | 42 | 270 | 0.0 | 0.0 | 0.00 | 0.00 | 0.00 | 54 | 1011.5 |
| 20260504050200 | 42 | 270 | 0.0 | 0.0 | 0.00 | 0.00 | 0.00 | 57 | 1011.5 |
| 20260504045657 | 42 | 270 | 0.0 | 0.0 | 0.00 | 0.00 | 0.00 | 54 | 1011.5 |
| 20260504045152 | 42 | 270 | 0.0 | 0.0 | 0.00 | 0.00 | 0.00 | 53 | 1011.5 |
| 20260504044650 | 43 | 270 | 0.0 | 0.0 | 0.00 | 0.00 | 0.00 | 52 | 1011.5 |
| 20260504044147 | 42 | 270 | 0.0 | 0.0 | 0.00 | 0.00 | 0.00 | 54 | 1011.5 |
| 20260504043644 | 42 | 270 | 0.0 | 0.0 | 0.00 | 0.00 | 0.00 | 54 | 1011.5 |
| 20260504043141 | 42 | 270 | 0.0 | 0.0 | 0.00 | 0.00 | 0.00 | 56 | 1011.8 |
| 20260504042639 | 42 | 270 | 0.0 | 0.0 | 0.00 | 0.00 | 0.00 | 54 | 1011.5 |
| 20260504042135 | 42 | 270 | 0.0 | 0.0 | 0.00 | 0.00 | 0.00 | 55 | 1011.5 |
| 20260504041631 | 42 | 270 | 0.0 | 0.0 | 0.00 | 0.00 | 0.00 | 54 | 1011.5 |
| 20260504041127 | 42 | 270 | 0.0 | 0.0 | 0.00 | 0.00 | 0.00 | 53 | 1011.5 |
| 20260504040624 | 43 | 270 | 1.0 | 1.0 | 0.00 | 0.00 | 0.00 | 53 | 1011.5 |
| 20260504040121 | 43 | 270 | 2.0 | 2.0 | 0.00 | 0.00 | 0.00 | 53 | 1011.5 |
| 20260504035618 | 43 | 270 | 2.0 | 2.0 | 0.00 | 0.00 | 0.00 | 51 | 1011.5 |
| 20260504035114 | 43 | 270 | 2.0 | 2.0 | 0.00 | 0.00 | 0.00 | 51 | 1011.5 |
| 20260504034612 | 43 | 270 | 3.0 | 3.0 | 0.00 | 0.00 | 0.00 | 51 | 1011.5 |
| 20260504034109 | 43 | 270 | 2.0 | 2.0 | 0.00 | 0.00 | 0.00 | 52 | 1011.5 |
| 20260504033607 | 43 | 270 | 2.0 | 2.0 | 0.00 | 0.00 | 0.00 | 53 | 1011.5 |
| 20260504033104 | 43 | 276 | 2.0 | 2.0 | 0.00 | 0.00 | 0.00 | 52 | 1011.1 |
| 20260504032601 | 43 | 276 | 2.0 | 2.0 | 0.00 | 0.00 | 0.00 | 53 | 1011.5 |
| 20260504032058 | 43 | 288 | 3.0 | 3.0 | 0.00 | 0.00 | 0.00 | 53 | 1011.5 |
| 20260504031555 | 43 | 288 | 2.0 | 2.0 | 0.00 | 0.00 | 0.00 | 53 | 1011.1 |
| 20260504031051 | 42 | 288 | 2.0 | 2.0 | 0.00 | 0.00 | 0.00 | 54 | 1011.5 |
| 20260504030548 | 42 | 288 | 2.0 | 2.0 | 0.00 | 0.00 | 0.00 | 56 | 1011.5 |
| 20260504030044 | 43 | 288 | 2.0 | 2.0 | 0.00 | 0.00 | 0.00 | 53 | 1011.5 |
| 20260504025542 | 43 | 294 | 2.0 | 2.0 | 0.00 | 0.00 | 0.00 | 54 | 1011.5 |
| 20260504025038 | 42 | 294 | 2.0 | 2.0 | 0.00 | 0.00 | 0.00 | 54 | 1011.5 |
| 20260504024535 | 43 | 294 | 2.0 | 2.0 | 0.00 | 0.00 | 0.00 | 55 | 1011.5 |
| 20260504024032 | 42 | 294 | 2.0 | 2.0 | 0.00 | 0.00 | 0.00 | 54 | 1011.5 |
| 20260504023529 | 42 | 300 | 2.0 | 2.0 | 0.00 | 0.00 | 0.00 | 56 | 1011.5 |
| 20260504023025 | 42 | 300 | 2.0 | 2.0 | 0.00 | 0.00 | 0.00 | 56 | 1011.5 |
| 20260504022520 | 42 | 300 | 2.0 | 2.0 | 0.00 | 0.00 | 0.00 | 56 | 1011.5 |
| 20260504022017 | 42 | 300 | 2.0 | 2.0 | 0.00 | 0.00 | 0.00 | 56 | 1011.5 |
| 20260504021515 | 42 | 300 | 2.0 | 2.0 | 0.00 | 0.00 | 0.00 | 56 | 1011.5 |
| 20260504021012 | 42 | 300 | 2.0 | 2.0 | 0.00 | 0.00 | 0.00 | 55 | 1011.5 |
| 20260504020508 | 42 | 330 | 2.0 | 2.0 | 0.00 | 0.00 | 0.00 | 59 | 1011.1 |
| 20260504020005 | 42 | 330 | 0.0 | 0.0 | 0.00 | 0.00 | 0.00 | 56 | 1011.1 |
| 20260504015501 | 41 | 330 | 0.0 | 0.0 | 0.00 | 0.00 | 0.00 | 57 | 1011.1 |
| 20260504014957 | 40 | 330 | 0.0 | 0.0 | 0.00 | 0.00 | 0.00 | 60 | 1011.1 |
| 20260504014453 | 40 | 330 | 0.0 | 0.0 | 0.00 | 0.00 | 0.00 | 66 | 1011.1 |
| 20260504013950 | 40 | 330 | 0.0 | 0.0 | 0.00 | 0.00 | 0.00 | 66 | 1011.1 |
| 20260504013449 | 41 | 330 | 0.0 | 0.0 | 0.00 | 0.00 | 0.00 | 62 | 1010.8 |
| 20260504012944 | 41 | 330 | 0.0 | 0.0 | 0.00 | 0.00 | 0.00 | 61 | 1010.8 |
| 20260504012443 | 41 | 330 | 0.0 | 0.0 | 0.00 | 0.00 | 0.00 | 60 | 1011.1 |
| 20260504011940 | 41 | 330 | 0.0 | 0.0 | 0.00 | 0.00 | 0.00 | 59 | 1010.8 |
| 20260504011436 | 42 | 330 | 0.0 | 0.0 | 0.00 | 0.00 | 0.00 | 59 | 1010.8 |
| 20260504010932 | 42 | 330 | 0.0 | 0.0 | 0.00 | 0.00 | 0.00 | 61 | 1010.8 |
| 20260504010429 | 42 | 330 | 0.0 | 0.0 | 0.00 | 0.00 | 0.00 | 57 | 1010.8 |
| 20260504005925 | 42 | 330 | 0.0 | 0.0 | 0.00 | 0.00 | 0.00 | 58 | 1010.5 |
| 20260504005422 | 43 | 330 | 0.0 | 0.0 | 0.00 | 0.00 | 0.00 | 60 | 1010.8 |
| 20260504004919 | 44 | 330 | 0.0 | 0.0 | 0.00 | 0.00 | 0.00 | 55 | 1010.5 |
| 20260504004417 | 45 | 330 | 0.0 | 0.0 | 0.00 | 0.00 | 0.00 | 55 | 1010.5 |
| 20260504003914 | 46 | 330 | 0.0 | 0.0 | 0.00 | 0.00 | 0.00 | 49 | 1010.5 |
| 20260504003410 | 46 | 330 | 0.0 | 0.0 | 0.00 | 0.00 | 0.00 | 48 | 1010.1 |
| 20260504002907 | 46 | 330 | 0.0 | 0.0 | 0.00 | 0.00 | 0.00 | 47 | 1010.5 |
| 20260504002404 | 46 | 330 | 0.0 | 0.0 | 0.00 | 0.00 | 0.00 | 48 | 1010.1 |
| 20260504001901 | 46 | 330 | 0.0 | 0.0 | 0.00 | 0.00 | 0.00 | 48 | 1010.5 |
| 20260504001359 | 46 | 330 | 0.0 | 0.0 | 0.00 | 0.00 | 0.00 | 48 | 1010.1 |
| 20260504000855 | 46 | 330 | 0.0 | 0.0 | 0.00 | 0.00 | 0.00 | 48 | 1010.1 |
| 20260504000354 | 46 | 330 | 0.0 | 0.0 | 0.00 | 0.00 | 0.00 | 48 | 1010.1 |
| 20260503235849 | 46 | 330 | 0.0 | 0.0 | 0.00 | 0.00 | 0.00 | 49 | 1010.1 |
| 20260503235347 | 47 | 330 | 0.0 | 0.0 | 0.00 | 0.00 | 0.00 | 48 | 1010.1 |
| 20260503234844 | 47 | 336 | 0.0 | 0.0 | 0.00 | 0.00 | 0.00 | 48 | 1009.8 |
| 20260503234342 | 47 | 312 | 2.0 | 2.0 | 0.00 | 0.00 | 0.00 | 46 | 1010.1 |
| 20260503233840 | 47 | 318 | 0.0 | 0.0 | 0.00 | 0.00 | 0.00 | 45 | 1010.1 |
| 20260503233336 | 48 | 318 | 2.0 | 2.0 | 0.00 | 0.00 | 0.00 | 44 | 1009.8 |
| 20260503232832 | 48 | 282 | 2.0 | 2.0 | 0.00 | 0.00 | 0.00 | 43 | 1009.8 |
| 20260503232330 | 48 | 294 | 0.0 | 0.0 | 0.00 | 0.00 | 0.00 | 43 | 1009.8 |
| 20260503231827 | 48 | 294 | 1.0 | 1.0 | 0.00 | 0.00 | 0.00 | 44 | 1009.8 |
| 20260503231324 | 48 | 306 | 2.0 | 2.0 | 0.00 | 0.00 | 0.00 | 44 | 1009.4 |
| 20260503230820 | 48 | 288 | 2.0 | 2.0 | 0.00 | 0.00 | 0.00 | 43 | 1009.8 |
| 20260503230317 | 48 | 342 | 2.0 | 2.0 | 0.00 | 0.00 | 0.00 | 43 | 1009.4 |
| 20260503225815 | 49 | 282 | 3.0 | 4.0 | 0.00 | 0.00 | 0.00 | 42 | 1009.4 |
| 20260503225310 | 49 | 306 | 3.0 | 3.0 | 0.00 | 0.00 | 0.00 | 42 | 1009.4 |
| 20260503224807 | 49 | 288 | 3.0 | 3.0 | 0.00 | 0.00 | 0.00 | 42 | 1009.4 |
| 20260503224305 | 49 | 300 | 5.0 | 5.0 | 0.00 | 0.00 | 0.00 | 42 | 1009.4 |
| 20260503223802 | 49 | 282 | 3.0 | 3.0 | 0.00 | 0.00 | 0.00 | 44 | 1009.4 |
| 20260503223300 | 49 | 288 | 4.0 | 5.0 | 0.00 | 0.00 | 0.00 | 42 | 1009.4 |
| 20260503222755 | 49 | 288 | 6.0 | 6.0 | 0.00 | 0.00 | 0.00 | 41 | 1009.1 |
| 20260503222254 | 49 | 300 | 4.0 | 4.0 | 0.00 | 0.00 | 0.00 | 41 | 1009.4 |
| 20260503221752 | 49 | 288 | 4.0 | 4.0 | 0.00 | 0.00 | 0.00 | 41 | 1009.1 |
| 20260503221249 | 49 | 312 | 3.0 | 4.0 | 0.00 | 0.00 | 0.00 | 39 | 1009.1 |
| 20260503220745 | 50 | 306 | 4.0 | 4.0 | 0.00 | 0.00 | 0.00 | 39 | 1009.1 |
| 20260503220243 | 50 | 288 | 3.0 | 3.0 | 0.00 | 0.00 | 0.00 | 38 | 1009.1 |
| 20260503215739 | 50 | 282 | 6.0 | 6.0 | 0.00 | 0.00 | 0.00 | 38 | 1009.1 |
| 20260503215236 | 49 | 300 | 5.0 | 5.0 | 0.00 | 0.00 | 0.00 | 39 | 1009.1 |
| 20260503214734 | 49 | 330 | 2.0 | 2.0 | 0.00 | 0.00 | 0.00 | 39 | 1008.8 |
| 20260503214231 | 49 | 276 | 6.0 | 6.0 | 0.00 | 0.00 | 0.00 | 40 | 1009.1 |
| 20260503213729 | 50 | 306 | 6.0 | 6.0 | 0.00 | 0.00 | 0.00 | 39 | 1009.1 |
| 20260503213226 | 50 | 306 | 3.0 | 4.0 | 0.00 | 0.00 | 0.00 | 38 | 1009.1 |
| 20260503212723 | 49 | 288 | 5.0 | 6.0 | 0.00 | 0.00 | 0.00 | 39 | 1009.1 |
| 20260503212221 | 49 | 294 | 4.0 | 4.0 | 0.00 | 0.00 | 0.00 | 40 | 1008.8 |
| 20260503211718 | 49 | 300 | 7.0 | 7.0 | 0.00 | 0.00 | 0.00 | 39 | 1008.8 |
| 20260503211214 | 49 | 282 | 5.0 | 5.0 | 0.00 | 0.00 | 0.00 | 41 | 1008.8 |
| 20260503210709 | 50 | 294 | 9.0 | 10.0 | 0.00 | 0.00 | 0.00 | 40 | 1008.8 |
| 20260503210207 | 50 | 288 | 3.0 | 3.0 | 0.00 | 0.00 | 0.00 | 40 | 1008.3 |
| 20260503205703 | 50 | 300 | 5.0 | 5.0 | 0.00 | 0.00 | 0.00 | 40 | 1008.3 |
| 20260503205159 | 50 | 282 | 5.0 | 6.0 | 0.00 | 0.00 | 0.00 | 41 | 1008.3 |
| 20260503204655 | 50 | 336 | 4.0 | 4.0 | 0.00 | 0.00 | 0.00 | 39 | 1008.3 |
| 20260503204153 | 49 | 307 | 3.0 | 3.0 | 0.00 | 0.00 | 0.00 | 41 | 1008.3 |
| 20260503203650 | 49 | 300 | 5.0 | 6.0 | 0.00 | 0.00 | 0.00 | 42 | 1008.3 |
| 20260503203148 | 50 | 288 | 6.0 | 6.0 | 0.00 | 0.00 | 0.00 | 41 | 1008.0 |
| 20260503202644 | 50 | 294 | 4.0 | 5.0 | 0.00 | 0.00 | 0.00 | 39 | 1008.0 |
| 20260503202143 | 50 | 312 | 5.0 | 6.0 | 0.00 | 0.00 | 0.00 | 39 | 1008.0 |
| 20260503201641 | 49 | 342 | 4.0 | 5.0 | 0.00 | 0.00 | 0.00 | 39 | 1008.0 |
| 20260503201137 | 50 | 264 | 6.0 | 6.0 | 0.00 | 0.00 | 0.00 | 39 | 1008.0 |
| 20260503200633 | 50 | 312 | 5.0 | 6.0 | 0.00 | 0.00 | 0.00 | 40 | 1008.0 |
| 20260503200130 | 50 | 335 | 3.0 | 3.0 | 0.00 | 0.00 | 0.00 | 38 | 1008.0 |
| 20260503195627 | 50 | 300 | 5.0 | 6.0 | 0.00 | 0.00 | 0.00 | 39 | 1008.0 |
| 20260503195124 | 50 | 354 | 5.0 | 5.0 | 0.00 | 0.00 | 0.00 | 38 | 1008.0 |